Regional Weather Roundup
Issued by NWS

Home | Current Version | Previous Version | Text Only | Print | Product List | Glossary Off
Versions: 1 2 3 4 5 6 7 8 9 10 11 12 13 14 15 16 17 18 19 20 21 22 23 24 25 26 27 28 29 30 31 32 33 34 35 36 37 38 39 40 41 42 43 44 45 46 47 48 49 50

000
ASUS45 KABQ 251710
RWRNM
NEW MEXICO REGIONAL WEATHER ROUNDUP
NATIONAL WEATHER SERVICE ALBUQUERQUE NM
1000 AM MST SAT FEB 25 2017

NOTE: "FAIR" MEANS FEW OR NO CLOUDS BELOW 12,000 FEET AGL WITH NO
       SIGNIFICANT WEATHER OR OBSTRUCTIONS TO VISION.

      THIS PRODUCT IS RELEASED AS TWO VERSIONS.  ONE VERSION NEAR
      THE TOP OF THE HOUR CONTAINING PRELIMINARY DATA FROM ALBUQUERQUE
      AND OTHER STATIONS.  A FINAL VERSION WITH ADDITIONAL DATA IS
      ISSUED ABOUT 10 MINUTES AFTER THE HOUR.

NMZ501-503-504-510>518-251800-
NORTHWEST PLATEAU/NORTHCENTRAL MOUNTAINS

CITY           SKY/WX    TMP DP  RH WIND       PRES   REMARKS
FARMINGTON     FAIR      29   9  43 E3        30.07F
LOS ALAMOS     FAIR      31  -1  25 E7        30.03S WCI  24
SANTA FE       FAIR      34   1  24 SW10G18   30.04F WCI  26
TAOS           FAIR      27   1  33 S3        30.02F
ANGEL FIRE     FAIR      22   3  43 SW16G23   29.97F WCI   9

$$
NMZ402-403-502-505>509-251800-
WESTCENTRAL MOUNTAINS/SOUTHWEST MOUNTAINS

CITY           SKY/WX    TMP DP  RH WIND       PRES   REMARKS
GALLUP         FAIR      34  10  37 SW8       30.05F WCI  27
GRANTS         FAIR      32   5  31 CALM      30.06F
SILVER CITY    FAIR      46   8  21 W12       30.10F

$$
NMZ407-409-411-412-251800-
SOUTHERN DESERTS

CITY           SKY/WX    TMP DP  RH WIND       PRES   REMARKS
DEMING         FAIR      50  10  20 W10       30.11F
LAS CRUCES     FAIR      49   7  17 W16       30.11S
HOLLOMAN AFB   FAIR      49  10  20 S7        30.13F
ALAMOGORDO     FAIR      48  10  21 S10       30.10F
T OR C         FAIR      44   9  23 SE5       30.07F

$$
NMZ519>523-251800-
CENTRAL VALLEYS/CENTRAL HIGHLANDS

CITY           SKY/WX    TMP DP  RH WIND       PRES   REMARKS
ALBUQUERQUE    FAIR      36   3  25 CALM      30.08F
MORIARTY ARPT  FAIR      39   6  25 S6        30.06F WCI  35
CLINES CORNERS FAIR      34   4  28 W20       30.03F WCI  23
BELEN          FAIR      38   3  23 SE3       30.09F
SOCORRO        FAIR      41   6  23 N5        30.09S

$$
NMZ524>526-539-540-251800-
SOUTHCENTRAL MOUNTAINS

CITY           SKY/WX    TMP DP  RH WIND       PRES   REMARKS
RUIDOSO        FAIR      39   5  24 NE5       30.07F

$$
NMZ527>531-251800-
NORTHEAST HIGHLANDS/NORTHEAST PLAINS

CITY           SKY/WX    TMP DP  RH WIND       PRES   REMARKS
LAS VEGAS      FAIR      32   7  35 VRB6      29.97F WCI  26
RATON          FAIR      26  12  55 W7        29.96F WCI  18
CLAYTON        FAIR      34  19  54 SW18G24   30.02F WCI  23

$$
NMZ532>537-251800-
EASTCENTRAL PLAINS

CITY           SKY/WX    TMP DP  RH WIND       PRES   REMARKS
TUCUMCARI      FAIR      39  17  41 SW15      30.08F WCI  31
CANNON AFB     FAIR      36  18  48 S16       30.12F WCI  27
CLOVIS AIRPORT FAIR      36  18  48 S15G21    30.12F WCI  26

$$
NMZ028-029-538-251800-
SOUTHEAST PLAINS

CITY           SKY/WX    TMP DP  RH WIND       PRES   REMARKS
ROSWELL        FAIR      42  17  36 SE13        N/A
ARTESIA        FAIR      41  19  42 SE14G20   30.14F
CARLSBAD       FAIR      42  23  46 S12       30.14F
HOBBS          SUNNY     39  18  41 SE8       30.18F WCI  34


$$




USA.gov is the U.S. government's official web portal to all federal, state and local government web resources and services.